This is the latest recevied weather packets stored in our database for station/object N9WHM. If no packets are shown the sender has not sent any weather packets the latest 10 day(s).
| Time | Temp. | Humidity | Pressure | Rain* | Wind** | Luminosity | Snow |
|---|---|---|---|---|---|---|---|
| 1778195369 | 20.56° C | 22% | 1008.4 hPa | 0 mm | - | 246 W/m² | - |
| 1778195067 | 21.11° C | 22% | 1008.7 hPa | 0 mm | - | 260 W/m² | - |
| 1778194766 | 21.67° C | 23% | 1008.7 hPa | 0 mm | - | 275 W/m² | - |
| 1778194458 | 20.56° C | 24% | 1008.7 hPa | 0 mm | - | 289 W/m² | - |
| 1778194154 | 21.11° C | 22% | 1008.7 hPa | 0 mm | - | 304 W/m² | - |
| 1778193850 | 20.56° C | 24% | 1008.5 hPa | 0 mm | - | 321 W/m² | - |
| 1778193547 | 20.56° C | 22% | 1008.7 hPa | 0 mm | - | 336 W/m² | - |
| 1778193243 | 21.11° C | 23% | 1008.7 hPa | 0 mm | - | 348 W/m² | - |
| 1778192939 | 21.11° C | 22% | 1008.5 hPa | 0 mm | - | 366 W/m² | - |
| 1778192630 | 21.11° C | 22% | 1008.7 hPa | 0 mm | - | 382 W/m² | - |
| 1778192327 | 20.56° C | 23% | 1008.6 hPa | 0 mm | - | 396 W/m² | - |
| 1778192024 | 20.56° C | 23% | 1008.7 hPa | 0 mm | - | 411 W/m² | - |
| 1778191719 | 21.67° C | 24% | 1008.6 hPa | 0 mm | - | 426 W/m² | - |
| 1778191418 | 20.56° C | 23% | 1008.7 hPa | 0 mm | - | 443 W/m² | - |
| 1778191113 | 21.11° C | 23% | 1008.7 hPa | 0 mm | - | 455 W/m² | - |
| 1778190811 | 21.11° C | 23% | 1008.7 hPa | 0 mm | - | 472 W/m² | - |
| 1778190508 | 21.11° C | 23% | 1008.6 hPa | 0 mm | - | 485 W/m² | - |
| 1778190206 | 21.11° C | 23% | 1008.7 hPa | 0 mm | - | 499 W/m² | - |
| 1778189900 | 21.67° C | 23% | 1008.8 hPa | 0 mm | - | 511 W/m² | - |
| 1778189598 | 21.11° C | 25% | 1008.7 hPa | 0 mm | - | 526 W/m² | - |
| 1778189294 | 20.56° C | 27% | 1008.8 hPa | 0 mm | - | 536 W/m² | - |
| 1778188991 | 21.11° C | 24% | 1009 hPa | 0 mm | - | 551 W/m² | - |
| 1778188687 | 20.56° C | 25% | 1009 hPa | 0 mm | - | 562 W/m² | - |
| 1778188383 | 20° C | 26% | 1008.8 hPa | 0 mm | - | 564 W/m² | - |
| 1778188080 | 20.56° C | 26% | 1008.8 hPa | 0 mm | - | 139 W/m² | - |
* Rain latest hour (hover to see other rain measurements)
** Current wind speed in m/s (hover to see current wind gust speed)